START_TIME,STEP,MOV.,M6,t_acc.,M7,t_acc.,M19,t_acc.,H36,t_acc.
1979-07-30 12:00:26.140 ,0,0,0.,12.0,0.,12.0,0.,12.0,0.,12.0
1979-07-30 12:00:38.140 ,0,0,0.,12.0,0.,12.0,0.,12.0,0.,12.0
1979-07-30 12:00:50.140 ,1,1,0.,12.0,0.,12.0,0.,12.0,0.,12.0
1979-07-30 12:01:02.140 ,1,1,0.,12.0,0.,12.0,0.,12.0,0.,12.0
1979-07-30 12:01:14.140 ,1,0,0.,12.0,0.,12.0,0.,12.0,0.,12.0
1979-07-30 12:01:26.140 ,1,0,0.,12.0,0.,12.0,0.,12.0,0.,12.0
1979-07-30 12:01:38.140 ,2,1,0.,12.0,0.,12.0,0.,12.0,0.,12.0
1979-07-30 12:01:50.140 ,2,1,0.,12.0,0.,12.0,0.,12.0,0.,12.0
1979-07-30 12:02:02.140 ,2,0,0.,12.0,0.,12.0,0.,12.0,0.,12.0
1979-07-30 12:02:14.140 ,2,0,0.,12.0,0.,12.0,0.,12.0,0.,12.0
1979-07-30 12:02:26.140 ,3,1,0.,12.0,0.,12.0,0.,12.0,0.,12.0
1979-07-30 12:02:38.140 ,3,1,0.,12.0,0.,12.0,0.,12.0,0.,12.0
1979-07-30 12:02:50.140 ,3,0,0.,12.0,0.,12.0,0.,12.0,0.,12.0
1979-07-30 12:03:02.140 ,3,0,0.,12.0,0.,12.0,0.,12.0,0.,12.0
1979-07-30 12:03:14.140 ,4,1,0.,12.0,0.,12.0,0.,12.0,0.,12.0
1979-07-30 12:03:26.140 ,4,1,0.,12.0,0.,12.0,0.,12.0,0.,12.0
1979-07-30 12:03:38.140 ,4,0,0.,12.0,0.,12.0,0.,12.0,0.,12.0
1979-07-30 12:03:50.140 ,4,0,0.,12.0,0.,12.0,0.,12.0,0.,12.0
1979-07-30 12:04:02.140 ,5,1,0.,12.0,0.,12.0,0.,12.0,0.,12.0
1979-07-30 12:04:14.140 ,5,1,0.,12.0,0.,12.0,0.,12.0,0.,12.0
1979-07-30 12:04:26.140 ,5,0,0.,12.0,0.,12.0,0.,12.0,0.,12.0
1979-07-30 12:04:38.140 ,5,0,0.,12.0,0.,12.0,0.,12.0,0.,12.0
1979-07-30 12:04:50.140 ,6,1,0.,12.0,0.,12.0,0.,12.0,0.,12.0
1979-07-30 12:05:02.140 ,6,1,0.,12.0,0.,12.0,0.,12.0,0.,12.0
1979-07-30 12:05:14.140 ,6,0,0.,12.0,0.,12.0,0.,12.0,0.,12.0
1979-07-30 12:05:26.140 ,6,0,0.,12.0,0.,12.0,0.,12.0,0.,12.0
1979-07-30 12:05:38.140 ,7,1,0.,12.0,0.,12.0,0.,12.0,0.,12.0
1979-07-30 12:05:50.140 ,7,1,0.,12.0,0.,12.0,0.,12.0,0.,12.0
1979-07-30 12:06:02.140 ,7,0,0.,12.0,0.,12.0,0.,12.0,0.,12.0
1979-07-30 12:06:14.140 ,7,0,0.,12.0,0.,12.0,0.,12.0,0.,12.0
1979-07-30 12:06:26.140 ,7,1,0.,12.0,0.,12.0,0.,12.0,0.,12.0
1979-07-30 12:06:38.140 ,7,1,0.,12.0,0.,12.0,0.,12.0,0.,12.0
1979-07-30 12:06:50.140 ,7,0,0.,12.0,0.,12.0,0.,12.0,0.,12.0
1979-07-30 12:07:02.140 ,7,0,0.,12.0,0.,12.0,0.,12.0,0.,12.0
1979-07-30 12:07:14.140 ,6,1,0.,12.0,0.,12.0,0.,12.0,0.,12.0
1979-07-30 12:07:26.140 ,6,1,0.,12.0,0.,12.0,0.,12.0,0.,12.0
1979-07-30 12:07:38.140 ,6,0,0.,12.0,0.,12.0,0.,12.0,0.,12.0
1979-07-30 12:07:50.140 ,6,0,0.,12.0,0.,12.0,0.,12.0,0.,12.0
1979-07-30 12:08:02.140 ,5,1,0.,12.0,0.,12.0,0.,12.0,0.,12.0
1979-07-30 12:08:14.140 ,5,1,0.,12.0,0.,12.0,0.,12.0,0.,12.0
1979-07-30 12:08:26.140 ,5,0,0.,12.0,0.,12.0,0.,12.0,0.,12.0
1979-07-30 12:08:38.140 ,5,0,0.,12.0,0.,12.0,0.,12.0,0.,12.0
1979-07-30 12:08:50.140 ,4,1,0.,12.0,0.,12.0,0.,12.0,0.,12.0
1979-07-30 12:09:02.140 ,4,1,0.,12.0,0.,12.0,0.,12.0,0.,12.0
1979-07-30 12:09:14.140 ,4,0,0.,12.0,0.,12.0,0.,12.0,0.,12.0
1979-07-30 12:09:26.140 ,4,0,0.,12.0,0.,12.0,0.,12.0,0.,12.0
1979-07-30 12:09:38.140 ,3,1,0.,12.0,0.,12.0,0.,12.0,0.,12.0
1979-07-30 12:09:50.140 ,3,1,0.,12.0,0.,12.0,0.,12.0,0.,12.0
1979-07-30 12:10:02.140 ,3,0,0.,12.0,0.,12.0,0.,12.0,0.,12.0
1979-07-30 12:10:14.140 ,3,0,0.,12.0,0.,12.0,0.,12.0,0.,12.0
1979-07-30 12:10:26.140 ,2,1,0.,12.0,0.,12.0,0.,12.0,0.,12.0
1979-07-30 12:10:38.140 ,2,1,0.,12.0,0.,12.0,0.,12.0,0.,12.0
1979-07-30 12:10:50.140 ,2,0,0.,12.0,0.,12.0,0.,12.0,0.,12.0
1979-07-30 12:11:02.140 ,2,0,0.,12.0,0.,12.0,0.,12.0,0.,12.0
1979-07-30 12:11:14.140 ,1,1,0.,12.0,0.,12.0,0.,12.0,0.,12.0
1979-07-30 12:11:26.140 ,1,1,0.,12.0,0.,12.0,0.,12.0,0.,12.0
1979-07-30 12:11:38.140 ,1,0,0.,12.0,0.,12.0,0.,12.0,0.,12.0
1979-07-30 12:11:50.140 ,1,0,0.,12.0,0.,12.0,0.,12.0,0.,12.0
1979-07-30 12:12:02.140 ,0,1,0.,12.0,0.,12.0,0.,12.0,0.,12.0
1979-07-30 12:12:14.140 ,0,1,0.,12.0,0.,12.0,0.,12.0,0.,12.0
1979-07-30 12:12:26.140 ,0,0,0.,12.0,0.,12.0,0.,12.0,0.,12.0
1979-07-30 12:12:38.140 ,0,0,0.,12.0,0.,12.0,0.,12.0,0.,12.0
1979-07-30 12:12:50.140 ,0,1,0.,12.0,0.,12.0,0.,12.0,0.,12.0
1979-07-30 12:13:02.140 ,0,1,1.,12.0,0.,12.0,0.,12.0,0.,12.0
1979-07-30 12:13:14.140 ,0,0,0.,12.0,0.,12.0,0.,12.0,0.,12.0
1979-07-30 12:13:26.140 ,0,0,0.,12.0,0.,12.0,0.,12.0,0.,12.0
1979-07-30 12:13:38.140 ,1,1,0.,12.0,0.,12.0,0.,12.0,0.,12.0
1979-07-30 12:13:50.140 ,1,1,0.,12.0,0.,12.0,0.,12.0,0.,12.0
1979-07-30 12:14:02.140 ,1,0,0.,12.0,0.,12.0,0.,12.0,0.,12.0
1979-07-30 12:14:14.140 ,1,0,0.,12.0,0.,12.0,0.,12.0,0.,12.0
1979-07-30 12:14:26.140 ,2,1,0.,12.0,0.,12.0,0.,12.0,0.,12.0
1979-07-30 12:14:38.140 ,2,1,0.,12.0,0.,12.0,0.,12.0,0.,12.0
1979-07-30 12:14:50.140 ,2,0,0.,12.0,0.,12.0,0.,12.0,0.,12.0
1979-07-30 12:15:02.140 ,2,0,0.,12.0,0.,12.0,0.,12.0,0.,12.0
1979-07-30 12:15:14.140 ,3,1,0.,12.0,0.,12.0,0.,12.0,0.,12.0
1979-07-30 12:15:26.140 ,3,1,0.,12.0,0.,12.0,0.,12.0,0.,12.0
1979-07-30 12:15:38.140 ,3,0,0.,12.0,0.,12.0,0.,12.0,0.,12.0
1979-07-30 12:15:50.140 ,3,0,0.,12.0,0.,12.0,0.,12.0,0.,12.0
1979-07-30 12:16:02.140 ,4,1,0.,12.0,0.,12.0,0.,12.0,0.,12.0
1979-07-30 12:16:14.140 ,4,1,0.,12.0,0.,12.0,0.,12.0,0.,12.0
1979-07-30 12:16:26.140 ,4,0,0.,12.0,0.,12.0,0.,12.0,0.,12.0
1979-07-30 12:16:38.140 ,4,0,0.,12.0,0.,12.0,0.,12.0,0.,12.0
1979-07-30 12:16:50.140 ,5,1,0.,12.0,0.,12.0,0.,12.0,0.,12.0
1979-07-30 12:17:02.140 ,5,1,0.,12.0,0.,12.0,0.,12.0,0.,12.0
1979-07-30 12:17:14.140 ,5,0,0.,12.0,0.,12.0,0.,12.0,0.,12.0
1979-07-30 12:17:26.140 ,5,0,0.,12.0,0.,12.0,0.,12.0,0.,12.0
1979-07-30 12:17:38.140 ,6,1,0.,12.0,0.,12.0,0.,12.0,0.,12.0
1979-07-30 12:17:50.140 ,6,1,0.,12.0,0.,12.0,0.,12.0,0.,12.0
1979-07-30 12:18:02.140 ,6,0,0.,12.0,0.,12.0,0.,12.0,0.,12.0
1979-07-30 12:18:14.140 ,6,0,0.,12.0,0.,12.0,0.,12.0,0.,12.0
1979-07-30 12:18:26.140 ,7,0,0.,12.0,0.,12.0,0.,12.0,0.,12.0
1979-07-30 12:18:38.140 ,7,0,0.,12.0,0.,12.0,0.,12.0,0.,12.0
1979-07-30 12:18:50.140 ,7,0,0.,12.0,0.,12.0,0.,12.0,0.,12.0
1979-07-30 12:19:02.140 ,7,0,0.,12.0,0.,12.0,0.,12.0,0.,12.0
1979-07-30 12:19:14.140 ,4,1,0.,12.0,0.,12.0,0.,12.0,0.,12.0
1979-07-30 12:19:26.140 ,4,1,0.,12.0,0.,12.0,0.,12.0,0.,12.0
1979-07-30 12:19:38.140 ,0,1,0.,12.0,0.,12.0,0.,12.0,0.,12.0
1979-07-30 12:19:50.140 ,0,1,0.,12.0,0.,12.0,0.,12.0,0.,12.0
1979-07-30 12:20:02.140 ,3,1,0.,12.0,0.,12.0,0.,12.0,0.,12.0
1979-07-30 12:20:14.140 ,3,1,0.,12.0,0.,12.0,0.,12.0,0.,12.0
1979-07-30 12:20:26.140 ,7,1,0.,12.0,0.,12.0,0.,12.0,0.,12.0
1979-07-30 12:20:38.140 ,7,1,0.,12.0,0.,12.0,0.,12.0,0.,12.0
1979-07-30 12:20:50.140 ,4,1,0.,12.0,0.,12.0,0.,12.0,0.,12.0
1979-07-30 12:21:02.140 ,4,1,0.,12.0,0.,12.0,0.,12.0,0.,12.0
1979-07-30 12:21:14.140 ,0,1,0.,12.0,0.,12.0,0.,12.0,0.,12.0
1979-07-30 12:21:26.140 ,0,1,0.,12.0,0.,12.0,0.,12.0,0.,12.0
1979-07-30 12:21:38.140 ,3,1,0.,12.0,0.,12.0,0.,12.0,0.,12.0
1979-07-30 12:21:50.140 ,3,1,0.,12.0,0.,12.0,0.,12.0,0.,12.0
1979-07-30 12:22:02.140 ,7,1,0.,12.0,0.,12.0,0.,12.0,0.,12.0
1979-07-30 12:22:14.140 ,7,1,0.,12.0,0.,12.0,0.,12.0,0.,12.0
1979-07-30 12:22:26.140 ,4,1,0.,12.0,0.,12.0,0.,12.0,0.,12.0
1979-07-30 12:22:38.140 ,4,1,0.,12.0,0.,12.0,0.,12.0,0.,12.0
1979-07-30 12:22:50.140 ,0,1,0.,12.0,0.,12.0,0.,12.0,0.,12.0
1979-07-30 12:23:02.140 ,0,1,0.,12.0,0.,12.0,0.,12.0,0.,12.0
1979-07-30 12:23:14.140 ,3,1,0.,12.0,0.,12.0,0.,12.0,0.,12.0
1979-07-30 12:23:26.140 ,3,1,0.,12.0,0.,12.0,0.,12.0,0.,12.0
1979-07-30 12:23:38.140 ,7,1,0.,12.0,0.,12.0,0.,12.0,0.,12.0
1979-07-30 12:23:50.140 ,7,1,0.,12.0,0.,12.0,0.,12.0,0.,12.0
1979-07-30 12:24:02.140 ,4,1,0.,12.0,0.,12.0,0.,12.0,0.,12.0
1979-07-30 12:24:14.140 ,4,1,0.,12.0,0.,12.0,0.,12.0,0.,12.0
1979-07-30 12:24:26.140 ,0,1,0.,12.0,0.,12.0,0.,12.0,0.,12.0
1979-07-30 12:24:38.140 ,0,1,0.,12.0,0.,12.0,0.,12.0,0.,12.0
1979-07-30 12:24:50.140 ,3,1,0.,12.0,0.,12.0,0.,12.0,0.,12.0
1979-07-30 12:25:02.140 ,3,1,0.,12.0,0.,12.0,0.,12.0,0.,12.0
1979-07-30 12:25:14.140 ,7,1,0.,12.0,0.,12.0,0.,12.0,0.,12.0
1979-07-30 12:25:26.140 ,7,1,0.,12.0,0.,12.0,0.,12.0,0.,12.0
1979-07-30 12:25:38.140 ,4,1,0.,12.0,0.,12.0,0.,12.0,0.,12.0
1979-07-30 12:25:50.140 ,4,1,0.,12.0,0.,12.0,0.,12.0,0.,12.0
1979-07-30 12:26:02.140 ,0,1,0.,12.0,0.,12.0,0.,12.0,0.,12.0
1979-07-30 12:26:14.140 ,0,1,0.,12.0,0.,12.0,0.,12.0,0.,12.0
1979-07-30 12:26:26.140 ,3,1,0.,12.0,0.,12.0,0.,12.0,0.,12.0
1979-07-30 12:26:38.140 ,3,1,0.,12.0,0.,12.0,0.,12.0,0.,12.0
1979-07-30 12:26:50.140 ,7,1,0.,12.0,0.,12.0,0.,12.0,0.,12.0
1979-07-30 12:27:02.140 ,7,1,0.,12.0,0.,12.0,0.,12.0,0.,12.0
1979-07-30 12:27:14.140 ,4,1,0.,12.0,0.,12.0,0.,12.0,0.,12.0
1979-07-30 12:27:26.140 ,4,1,0.,12.0,0.,12.0,0.,12.0,0.,12.0
1979-07-30 12:27:38.140 ,0,1,0.,12.0,0.,12.0,0.,12.0,0.,12.0
1979-07-30 12:27:50.140 ,0,1,0.,12.0,0.,12.0,0.,12.0,0.,12.0
1979-07-30 12:28:02.140 ,3,1,0.,12.0,0.,12.0,0.,12.0,0.,12.0
1979-07-30 12:28:14.140 ,3,1,0.,12.0,0.,12.0,0.,12.0,0.,12.0
1979-07-30 12:28:26.140 ,7,1,0.,12.0,0.,12.0,0.,12.0,0.,12.0
1979-07-30 12:28:38.140 ,7,1,0.,12.0,0.,12.0,0.,12.0,0.,12.0
1979-07-30 12:28:50.140 ,4,1,0.,12.0,0.,12.0,0.,12.0,0.,12.0
1979-07-30 12:29:02.140 ,4,1,0.,12.0,0.,12.0,0.,12.0,0.,12.0
1979-07-30 12:29:14.140 ,0,1,0.,12.0,0.,12.0,0.,12.0,0.,12.0
1979-07-30 12:29:26.140 ,0,1,0.,12.0,0.,12.0,0.,12.0,0.,12.0
1979-07-30 12:29:38.140 ,0,0,0.,12.0,0.,12.0,0.,12.0,0.,12.0
1979-07-30 12:29:50.140 ,0,0,0.,12.0,0.,12.0,0.,12.0,0.,12.0
1979-07-30 12:30:02.140 ,0,0,0.,12.0,0.,12.0,0.,12.0,0.,12.0
1979-07-30 12:30:14.140 ,0,0,0.,12.0,0.,12.0,0.,12.0,0.,12.0
1979-07-30 12:30:26.140 ,5,1,0.,12.0,0.,12.0,0.,12.0,0.,12.0
1979-07-30 12:30:38.140 ,5,1,0.,12.0,0.,12.0,0.,12.0,0.,12.0
1979-07-30 12:30:50.140 ,5,0,0.,12.0,0.,12.0,0.,12.0,0.,12.0
1979-07-30 12:31:02.140 ,5,0,0.,12.0,0.,12.0,0.,12.0,0.,12.0
1979-07-30 12:31:14.140 ,4,1,0.,12.0,0.,12.0,0.,12.0,0.,12.0
1979-07-30 12:31:26.140 ,4,1,0.,12.0,0.,12.0,0.,12.0,0.,12.0
1979-07-30 12:31:38.140 ,4,0,0.,12.0,0.,12.0,0.,12.0,0.,12.0
1979-07-30 12:31:50.140 ,4,0,0.,12.0,0.,12.0,0.,12.0,0.,12.0
1979-07-30 12:32:02.140 ,3,1,0.,12.0,0.,12.0,0.,12.0,0.,12.0
1979-07-30 12:32:14.140 ,3,1,0.,12.0,0.,12.0,0.,12.0,0.,12.0
1979-07-30 12:32:26.140 ,3,0,0.,12.0,0.,12.0,0.,12.0,0.,12.0
1979-07-30 12:32:38.140 ,3,0,0.,12.0,0.,12.0,0.,12.0,0.,12.0
1979-07-30 12:32:50.140 ,2,1,0.,12.0,0.,12.0,0.,12.0,0.,12.0
1979-07-30 12:33:02.140 ,2,1,0.,12.0,0.,12.0,0.,12.0,0.,12.0
1979-07-30 12:33:14.140 ,2,0,0.,12.0,0.,12.0,0.,12.0,0.,12.0
1979-07-30 12:33:26.140 ,2,0,0.,12.0,0.,12.0,0.,12.0,0.,12.0
1979-07-30 12:33:38.140 ,1,1,0.,12.0,0.,12.0,0.,12.0,0.,12.0
1979-07-30 12:33:50.140 ,1,1,0.,12.0,0.,12.0,0.,12.0,0.,12.0
1979-07-30 12:34:02.140 ,1,0,0.,12.0,0.,12.0,0.,12.0,0.,12.0
1979-07-30 12:34:14.140 ,1,0,0.,12.0,0.,12.0,0.,12.0,0.,12.0
1979-07-30 12:34:26.140 ,0,1,0.,12.0,0.,12.0,0.,12.0,0.,12.0
1979-07-30 12:34:38.140 ,0,1,0.,12.0,0.,12.0,0.,12.0,0.,12.0
1979-07-30 12:34:50.140 ,0,0,0.,12.0,0.,12.0,0.,12.0,0.,12.0
1979-07-30 12:35:02.140 ,0,0,0.,12.0,0.,12.0,0.,12.0,0.,12.0
1979-07-30 12:35:14.140 ,0,1,0.,12.0,0.,12.0,0.,12.0,0.,12.0
1979-07-30 12:35:26.140 ,0,1,0.,12.0,0.,12.0,0.,12.0,0.,12.0
1979-07-30 12:35:38.140 ,0,0,0.,12.0,0.,12.0,0.,12.0,0.,12.0
1979-07-30 12:35:50.140 ,0,0,0.,12.0,0.,12.0,0.,12.0,0.,12.0
1979-07-30 12:36:02.140 ,1,1,1.,12.0,0.,12.0,0.,12.0,0.,12.0
1979-07-30 12:36:14.140 ,1,1,0.,12.0,0.,12.0,0.,12.0,0.,12.0
1979-07-30 12:36:26.140 ,1,0,0.,12.0,0.,12.0,0.,12.0,0.,12.0
1979-07-30 12:36:38.140 ,1,0,0.,12.0,0.,12.0,0.,12.0,0.,12.0
1979-07-30 12:36:50.140 ,2,1,0.,12.0,0.,12.0,0.,12.0,0.,12.0
1979-07-30 12:37:02.140 ,2,1,0.,12.0,0.,12.0,0.,12.0,0.,12.0
1979-07-30 12:37:14.140 ,2,0,0.,12.0,0.,12.0,0.,12.0,0.,12.0
1979-07-30 12:37:26.140 ,2,0,0.,12.0,0.,12.0,0.,12.0,0.,12.0
1979-07-30 12:37:38.140 ,3,1,0.,12.0,0.,12.0,0.,12.0,0.,12.0
1979-07-30 12:37:50.140 ,3,1,0.,12.0,0.,12.0,0.,12.0,0.,12.0
1979-07-30 12:38:02.140 ,3,0,0.,12.0,0.,12.0,0.,12.0,0.,12.0
1979-07-30 12:38:14.140 ,3,0,0.,12.0,0.,12.0,0.,12.0,0.,12.0
1979-07-30 12:38:26.140 ,4,1,0.,12.0,0.,12.0,0.,12.0,0.,12.0
1979-07-30 12:38:38.140 ,4,1,0.,12.0,0.,12.0,0.,12.0,0.,12.0
1979-07-30 12:38:50.140 ,4,0,0.,12.0,0.,12.0,0.,12.0,0.,12.0
1979-07-30 12:39:02.140 ,4,0,0.,12.0,0.,12.0,0.,12.0,0.,12.0
1979-07-30 12:39:14.140 ,5,1,0.,12.0,0.,12.0,0.,12.0,0.,12.0
1979-07-30 12:39:26.140 ,5,1,0.,12.0,0.,12.0,0.,12.0,0.,12.0
1979-07-30 12:39:38.140 ,5,0,0.,12.0,0.,12.0,0.,12.0,0.,12.0
1979-07-30 12:39:50.140 ,5,0,0.,12.0,0.,12.0,0.,12.0,0.,12.0
1979-07-30 12:40:02.140 ,6,1,0.,12.0,0.,12.0,0.,12.0,0.,12.0
1979-07-30 12:40:14.140 ,6,1,0.,12.0,0.,12.0,0.,12.0,0.,12.0
1979-07-30 12:40:26.140 ,6,0,0.,12.0,0.,12.0,0.,12.0,0.,12.0
1979-07-30 12:40:38.140 ,6,0,0.,12.0,0.,12.0,0.,12.0,0.,12.0
1979-07-30 12:40:50.140 ,7,1,0.,12.0,0.,12.0,0.,12.0,0.,12.0
1979-07-30 12:41:02.140 ,7,1,0.,12.0,0.,12.0,0.,12.0,0.,12.0
1979-07-30 12:41:14.140 ,7,0,0.,12.0,0.,12.0,0.,12.0,0.,12.0
1979-07-30 12:41:26.140 ,7,0,0.,12.0,0.,12.0,0.,12.0,0.,12.0
1979-07-30 12:41:38.140 ,7,1,0.,12.0,0.,12.0,0.,12.0,0.,12.0
1979-07-30 12:41:50.140 ,7,1,0.,12.0,0.,12.0,0.,12.0,0.,12.0
1979-07-30 12:42:02.140 ,7,0,0.,12.0,0.,12.0,0.,12.0,0.,12.0
1979-07-30 12:42:14.140 ,7,0,0.,12.0,0.,12.0,0.,12.0,0.,12.0
1979-07-30 12:42:26.140 ,6,1,0.,12.0,0.,12.0,0.,12.0,0.,12.0
1979-07-30 12:42:38.140 ,6,1,0.,12.0,0.,12.0,0.,12.0,0.,12.0
1979-07-30 12:42:50.140 ,6,0,0.,12.0,0.,12.0,0.,12.0,0.,12.0
1979-07-30 12:43:02.140 ,6,0,0.,12.0,0.,12.0,0.,12.0,0.,12.0
1979-07-30 12:43:14.140 ,5,1,0.,12.0,0.,12.0,0.,12.0,0.,12.0
1979-07-30 12:43:26.140 ,5,1,0.,12.0,0.,12.0,0.,12.0,0.,12.0
1979-07-30 12:43:38.140 ,5,0,0.,12.0,0.,12.0,0.,12.0,0.,12.0
1979-07-30 12:43:50.140 ,5,0,0.,12.0,0.,12.0,0.,12.0,0.,12.0
1979-07-30 12:44:02.140 ,4,1,0.,12.0,0.,12.0,0.,12.0,0.,12.0
1979-07-30 12:44:14.140 ,4,1,0.,12.0,0.,12.0,0.,12.0,0.,12.0
1979-07-30 12:44:26.140 ,4,0,0.,12.0,0.,12.0,0.,12.0,0.,12.0
1979-07-30 12:44:38.140 ,4,0,0.,12.0,0.,12.0,0.,12.0,0.,12.0
1979-07-30 12:44:50.140 ,3,1,0.,12.0,0.,12.0,0.,12.0,0.,12.0
1979-07-30 12:45:02.140 ,3,1,0.,12.0,0.,12.0,0.,12.0,0.,12.0
1979-07-30 12:45:14.140 ,3,0,0.,12.0,0.,12.0,0.,12.0,0.,12.0
1979-07-30 12:45:26.140 ,3,0,0.,12.0,0.,12.0,0.,12.0,0.,12.0
1979-07-30 12:45:38.140 ,2,1,0.,12.0,0.,12.0,0.,12.0,0.,12.0
1979-07-30 12:45:50.140 ,2,1,0.,12.0,0.,12.0,0.,12.0,0.,12.0
1979-07-30 12:46:02.140 ,2,0,0.,12.0,0.,12.0,0.,12.0,0.,12.0
1979-07-30 12:46:14.140 ,2,0,0.,12.0,0.,12.0,0.,12.0,0.,12.0
1979-07-30 12:46:26.140 ,1,1,0.,12.0,0.,12.0,0.,12.0,0.,12.0
1979-07-30 12:46:38.140 ,1,1,0.,12.0,0.,12.0,0.,12.0,0.,12.0
1979-07-30 12:46:50.140 ,1,0,0.,12.0,0.,12.0,0.,12.0,0.,12.0
1979-07-30 12:47:02.140 ,1,0,0.,12.0,0.,12.0,0.,12.0,0.,12.0
1979-07-30 12:47:14.140 ,0,1,0.,12.0,0.,12.0,0.,12.0,0.,12.0
1979-07-30 12:47:26.140 ,0,1,0.,12.0,0.,12.0,0.,12.0,0.,12.0
1979-07-30 12:47:38.140 ,0,0,0.,12.0,0.,12.0,0.,12.0,0.,12.0
1979-07-30 12:47:50.140 ,0,0,0.,12.0,0.,12.0,0.,12.0,0.,12.0
1979-07-30 12:48:02.140 ,0,1,0.,12.0,0.,12.0,0.,12.0,0.,12.0
1979-07-30 12:48:14.140 ,0,1,0.,12.0,0.,12.0,0.,12.0,0.,12.0
1979-07-30 12:48:26.140 ,0,0,0.,12.0,0.,12.0,0.,12.0,0.,12.0
1979-07-30 12:48:38.140 ,0,0,0.,12.0,0.,12.0,0.,12.0,0.,12.0
1979-07-30 12:48:50.140 ,1,1,0.,12.0,0.,12.0,0.,12.0,0.,12.0
1979-07-30 12:49:02.140 ,1,1,0.,12.0,0.,12.0,0.,12.0,0.,12.0
1979-07-30 12:49:14.140 ,1,0,0.,12.0,0.,12.0,0.,12.0,0.,12.0
1979-07-30 12:49:26.140 ,1,0,0.,12.0,0.,12.0,0.,12.0,0.,12.0
1979-07-30 12:49:38.140 ,2,1,0.,12.0,0.,12.0,0.,12.0,0.,12.0
1979-07-30 12:49:50.140 ,2,1,0.,12.0,0.,12.0,0.,12.0,0.,12.0
1979-07-30 12:50:02.140 ,2,0,0.,12.0,0.,12.0,0.,12.0,0.,12.0
1979-07-30 12:50:14.140 ,2,0,0.,12.0,0.,12.0,0.,12.0,0.,12.0
1979-07-30 12:50:26.140 ,3,1,0.,12.0,0.,12.0,0.,12.0,0.,12.0
1979-07-30 12:50:38.140 ,3,1,0.,12.0,0.,12.0,0.,12.0,0.,12.0
1979-07-30 12:50:50.140 ,3,0,0.,12.0,0.,12.0,0.,12.0,0.,12.0
1979-07-30 12:51:02.140 ,3,0,0.,12.0,0.,12.0,0.,12.0,0.,12.0
1979-07-30 12:51:14.140 ,4,1,0.,12.0,0.,12.0,0.,12.0,0.,12.0
1979-07-30 12:51:26.140 ,4,1,0.,12.0,0.,12.0,0.,12.0,0.,12.0
1979-07-30 12:51:38.140 ,4,0,0.,12.0,0.,12.0,0.,12.0,0.,12.0
1979-07-30 12:51:50.140 ,4,0,0.,12.0,0.,12.0,0.,12.0,0.,12.0
1979-07-30 12:52:02.140 ,5,1,0.,12.0,0.,12.0,0.,12.0,0.,12.0
1979-07-30 12:52:14.140 ,5,1,0.,12.0,0.,12.0,0.,12.0,0.,12.0
1979-07-30 12:52:26.140 ,5,0,0.,12.0,0.,12.0,0.,12.0,0.,12.0
1979-07-30 12:52:38.140 ,5,0,0.,12.0,0.,12.0,0.,12.0,0.,12.0
1979-07-30 12:52:50.140 ,6,1,0.,12.0,0.,12.0,0.,12.0,0.,12.0
1979-07-30 12:53:02.140 ,6,1,0.,12.0,0.,12.0,0.,12.0,0.,12.0
1979-07-30 12:53:14.140 ,6,0,0.,12.0,0.,12.0,0.,12.0,0.,12.0
1979-07-30 12:53:26.140 ,6,0,0.,12.0,0.,12.0,0.,12.0,0.,12.0
1979-07-30 12:53:38.140 ,7,1,0.,12.0,0.,12.0,0.,12.0,0.,12.0
1979-07-30 12:53:50.140 ,7,1,0.,12.0,0.,12.0,0.,12.0,0.,12.0
1979-07-30 12:54:02.140 ,7,0,0.,12.0,0.,12.0,0.,12.0,0.,12.0
1979-07-30 12:54:14.140 ,7,0,0.,12.0,0.,12.0,0.,12.0,0.,12.0
1979-07-30 12:54:26.140 ,7,1,0.,12.0,0.,12.0,0.,12.0,0.,12.0
1979-07-30 12:54:38.140 ,7,1,0.,12.0,0.,12.0,0.,12.0,0.,12.0
1979-07-30 12:54:50.140 ,7,0,0.,12.0,0.,12.0,0.,12.0,0.,12.0
1979-07-30 12:55:02.140 ,7,0,0.,12.0,0.,12.0,0.,12.0,0.,12.0
1979-07-30 12:55:14.140 ,6,1,0.,12.0,0.,12.0,0.,12.0,0.,12.0
1979-07-30 12:55:26.140 ,6,1,0.,12.0,0.,12.0,0.,12.0,0.,12.0
1979-07-30 12:55:38.140 ,6,0,0.,12.0,0.,12.0,0.,12.0,0.,12.0
1979-07-30 12:55:50.140 ,6,0,0.,12.0,0.,12.0,0.,12.0,0.,12.0
1979-07-30 12:56:02.140 ,5,1,0.,12.0,0.,12.0,0.,12.0,0.,12.0
1979-07-30 12:56:14.140 ,5,1,0.,12.0,0.,12.0,0.,12.0,0.,12.0
1979-07-30 12:56:26.140 ,5,0,0.,12.0,0.,12.0,0.,12.0,0.,12.0
1979-07-30 12:56:38.140 ,5,0,1.,12.0,0.,12.0,0.,12.0,0.,12.0
1979-07-30 12:56:50.140 ,4,1,0.,12.0,0.,12.0,0.,12.0,0.,12.0
1979-07-30 12:57:02.140 ,4,1,0.,12.0,0.,12.0,0.,12.0,0.,12.0
1979-07-30 12:57:14.140 ,4,0,0.,12.0,0.,12.0,0.,12.0,0.,12.0
1979-07-30 12:57:26.140 ,4,0,0.,12.0,0.,12.0,0.,12.0,0.,12.0
1979-07-30 12:57:38.140 ,3,1,0.,12.0,0.,12.0,0.,12.0,0.,12.0
1979-07-30 12:57:50.140 ,3,1,0.,12.0,0.,12.0,0.,12.0,0.,12.0
1979-07-30 12:58:02.140 ,3,0,0.,12.0,0.,12.0,0.,12.0,0.,12.0
1979-07-30 12:58:14.140 ,3,0,0.,12.0,0.,12.0,0.,12.0,0.,12.0
1979-07-30 12:58:26.140 ,2,1,0.,12.0,0.,12.0,0.,12.0,0.,12.0
1979-07-30 12:58:38.140 ,2,1,0.,12.0,0.,12.0,0.,12.0,0.,12.0
1979-07-30 12:58:50.140 ,2,0,0.,12.0,0.,12.0,0.,12.0,0.,12.0
1979-07-30 12:59:02.140 ,2,0,0.,12.0,0.,12.0,0.,12.0,0.,12.0
1979-07-30 12:59:14.140 ,1,1,0.,12.0,0.,12.0,0.,12.0,0.,12.0
1979-07-30 12:59:26.140 ,1,1,0.,12.0,0.,12.0,0.,12.0,0.,12.0
1979-07-30 12:59:38.140 ,1,0,0.,12.0,0.,12.0,0.,12.0,0.,12.0
1979-07-30 12:59:50.140 ,1,0,0.,12.0,0.,12.0,0.,12.0,0.,12.0
1979-07-30 13:00:02.130 ,0,1,0.,12.0,0.,12.0,0.,12.0,0.,12.0
1979-07-30 13:00:14.130 ,0,1,0.,12.0,0.,12.0,0.,12.0,0.,12.0
1979-07-30 13:00:26.130 ,0,0,0.,12.0,0.,12.0,0.,12.0,0.,12.0
1979-07-30 13:00:38.130 ,0,0,0.,12.0,0.,12.0,0.,12.0,0.,12.0
1979-07-30 13:00:50.130 ,0,1,0.,12.0,0.,12.0,0.,12.0,0.,12.0
1979-07-30 13:01:02.130 ,0,1,0.,12.0,0.,12.0,0.,12.0,0.,12.0
1979-07-30 13:01:14.130 ,0,0,0.,12.0,0.,12.0,0.,12.0,0.,12.0
1979-07-30 13:01:26.130 ,0,0,0.,12.0,0.,12.0,0.,12.0,0.,12.0
1979-07-30 13:01:38.130 ,1,1,0.,12.0,0.,12.0,0.,12.0,0.,12.0
1979-07-30 13:01:50.130 ,1,1,0.,12.0,0.,12.0,0.,12.0,0.,12.0
1979-07-30 13:02:02.130 ,1,0,0.,12.0,0.,12.0,0.,12.0,0.,12.0
1979-07-30 13:02:14.130 ,1,0,0.,12.0,0.,12.0,0.,12.0,0.,12.0
1979-07-30 13:02:26.130 ,2,1,0.,12.0,0.,12.0,0.,12.0,0.,12.0
1979-07-30 13:02:38.130 ,2,1,0.,12.0,0.,12.0,0.,12.0,0.,12.0
1979-07-30 13:02:50.130 ,2,0,0.,12.0,0.,12.0,0.,12.0,0.,12.0
1979-07-30 13:03:02.130 ,2,0,0.,12.0,0.,12.0,0.,12.0,0.,12.0
1979-07-30 13:03:14.130 ,3,1,0.,12.0,0.,12.0,0.,12.0,0.,12.0
1979-07-30 13:03:26.130 ,3,1,0.,12.0,0.,12.0,0.,12.0,0.,12.0
1979-07-30 13:03:38.130 ,3,0,0.,12.0,0.,12.0,0.,12.0,0.,12.0
1979-07-30 13:03:50.130 ,3,0,0.,12.0,0.,12.0,0.,12.0,0.,12.0
1979-07-30 13:04:02.130 ,4,1,0.,12.0,0.,12.0,0.,12.0,0.,12.0
1979-07-30 13:04:14.130 ,4,1,0.,12.0,0.,12.0,0.,12.0,0.,12.0
1979-07-30 13:04:26.130 ,4,0,0.,12.0,0.,12.0,0.,12.0,0.,12.0
1979-07-30 13:04:38.130 ,4,0,0.,12.0,0.,12.0,0.,12.0,0.,12.0
1979-07-30 13:04:50.130 ,5,1,0.,12.0,0.,12.0,0.,12.0,0.,12.0
1979-07-30 13:05:02.130 ,5,1,0.,12.0,0.,12.0,0.,12.0,0.,12.0
1979-07-30 13:05:14.130 ,5,0,0.,12.0,0.,12.0,0.,12.0,0.,12.0
1979-07-30 13:05:26.130 ,5,0,0.,12.0,0.,12.0,0.,12.0,0.,12.0
1979-07-30 13:05:38.130 ,6,1,0.,12.0,0.,12.0,0.,12.0,0.,12.0
1979-07-30 13:05:50.130 ,6,1,0.,12.0,0.,12.0,0.,12.0,0.,12.0
1979-07-30 13:06:02.130 ,6,0,0.,12.0,0.,12.0,0.,12.0,0.,12.0
1979-07-30 13:06:14.130 ,6,0,0.,12.0,0.,12.0,0.,12.0,0.,12.0
1979-07-30 13:06:26.130 ,7,0,0.,12.0,0.,12.0,0.,12.0,0.,12.0
1979-07-30 13:06:38.130 ,7,0,0.,12.0,0.,12.0,0.,12.0,0.,12.0
1979-07-30 13:06:50.130 ,7,0,0.,12.0,0.,12.0,0.,12.0,0.,12.0
1979-07-30 13:07:02.130 ,7,0,0.,12.0,0.,12.0,0.,12.0,0.,12.0
1979-07-30 13:07:14.130 ,4,1,0.,12.0,0.,12.0,0.,12.0,0.,12.0
1979-07-30 13:07:26.130 ,4,1,0.,12.0,0.,12.0,0.,12.0,0.,12.0
1979-07-30 13:07:38.130 ,0,1,0.,12.0,0.,12.0,0.,12.0,0.,12.0
1979-07-30 13:07:50.130 ,0,1,0.,12.0,0.,12.0,0.,12.0,0.,12.0
1979-07-30 13:08:02.130 ,3,1,0.,12.0,0.,12.0,0.,12.0,0.,12.0
1979-07-30 13:08:14.130 ,3,1,0.,12.0,0.,12.0,0.,12.0,0.,12.0
1979-07-30 13:08:26.130 ,7,1,0.,12.0,0.,12.0,0.,12.0,0.,12.0
1979-07-30 13:08:38.130 ,7,1,0.,12.0,0.,12.0,0.,12.0,0.,12.0
1979-07-30 13:08:50.130 ,4,1,0.,12.0,0.,12.0,0.,12.0,0.,12.0
1979-07-30 13:09:02.130 ,4,1,0.,12.0,0.,12.0,0.,12.0,0.,12.0
1979-07-30 13:09:14.130 ,0,1,0.,12.0,0.,12.0,0.,12.0,0.,12.0
1979-07-30 13:09:26.130 ,0,1,0.,12.0,0.,12.0,0.,12.0,0.,12.0
1979-07-30 13:09:38.130 ,3,1,0.,12.0,0.,12.0,0.,12.0,0.,12.0
1979-07-30 13:09:50.130 ,3,1,0.,12.0,0.,12.0,0.,12.0,0.,12.0
1979-07-30 13:10:02.130 ,7,1,0.,12.0,0.,12.0,0.,12.0,0.,12.0
1979-07-30 13:10:14.130 ,7,1,0.,12.0,0.,12.0,0.,12.0,0.,12.0
1979-07-30 13:10:26.130 ,4,1,0.,12.0,0.,12.0,0.,12.0,0.,12.0
1979-07-30 13:10:38.130 ,4,1,0.,12.0,0.,12.0,0.,12.0,0.,12.0
1979-07-30 13:10:50.130 ,0,1,0.,12.0,0.,12.0,0.,12.0,0.,12.0
1979-07-30 13:11:02.130 ,0,1,0.,12.0,0.,12.0,0.,12.0,0.,12.0
1979-07-30 13:11:14.130 ,3,1,0.,12.0,0.,12.0,0.,12.0,0.,12.0
1979-07-30 13:11:26.130 ,3,1,0.,12.0,0.,12.0,0.,12.0,0.,12.0
1979-07-30 13:11:38.130 ,7,1,0.,12.0,0.,12.0,0.,12.0,0.,12.0
1979-07-30 13:11:50.130 ,7,1,0.,12.0,0.,12.0,0.,12.0,0.,12.0
1979-07-30 13:12:02.130 ,4,1,0.,12.0,0.,12.0,0.,12.0,0.,12.0
1979-07-30 13:12:14.130 ,4,1,0.,12.0,0.,12.0,0.,12.0,0.,12.0
1979-07-30 13:12:26.130 ,0,1,0.,12.0,0.,12.0,0.,12.0,0.,12.0
1979-07-30 13:12:38.130 ,0,1,0.,12.0,0.,12.0,0.,12.0,0.,12.0
1979-07-30 13:12:50.130 ,3,1,0.,12.0,0.,12.0,0.,12.0,0.,12.0
1979-07-30 13:13:02.130 ,3,1,0.,12.0,0.,12.0,0.,12.0,0.,12.0
1979-07-30 13:13:14.130 ,7,1,0.,12.0,0.,12.0,0.,12.0,0.,12.0
1979-07-30 13:13:26.130 ,7,1,0.,12.0,0.,12.0,0.,12.0,0.,12.0
1979-07-30 13:13:38.130 ,4,1,0.,12.0,0.,12.0,0.,12.0,0.,12.0
1979-07-30 13:13:50.130 ,4,1,0.,12.0,0.,12.0,0.,12.0,0.,12.0
1979-07-30 13:14:02.130 ,0,1,0.,12.0,0.,12.0,0.,12.0,0.,12.0
1979-07-30 13:14:14.130 ,0,1,0.,12.0,0.,12.0,0.,12.0,0.,12.0
1979-07-30 13:14:26.130 ,3,1,0.,12.0,0.,12.0,0.,12.0,0.,12.0
1979-07-30 13:14:38.130 ,3,1,0.,12.0,0.,12.0,0.,12.0,0.,12.0
1979-07-30 13:14:50.130 ,7,1,0.,12.0,0.,12.0,0.,12.0,0.,12.0
1979-07-30 13:15:02.130 ,7,1,0.,12.0,0.,12.0,0.,12.0,0.,12.0
1979-07-30 13:15:14.130 ,4,1,0.,12.0,0.,12.0,0.,12.0,0.,12.0
1979-07-30 13:15:26.130 ,4,1,0.,12.0,0.,12.0,0.,12.0,0.,12.0
1979-07-30 13:15:38.130 ,0,1,0.,12.0,0.,12.0,0.,12.0,0.,12.0
1979-07-30 13:15:50.130 ,0,1,0.,12.0,0.,12.0,0.,12.0,0.,12.0
1979-07-30 13:16:02.130 ,3,1,0.,12.0,0.,12.0,0.,12.0,0.,12.0
1979-07-30 13:16:14.130 ,3,1,0.,12.0,0.,12.0,0.,12.0,0.,12.0
1979-07-30 13:16:26.130 ,7,1,0.,12.0,0.,12.0,0.,12.0,0.,12.0
1979-07-30 13:16:38.130 ,7,1,0.,12.0,0.,12.0,0.,12.0,0.,12.0
1979-07-30 13:16:50.130 ,4,1,0.,12.0,0.,12.0,0.,12.0,0.,12.0
1979-07-30 13:17:02.130 ,4,1,0.,12.0,0.,12.0,0.,12.0,0.,12.0
1979-07-30 13:17:14.130 ,0,1,0.,12.0,0.,12.0,0.,12.0,0.,12.0
1979-07-30 13:17:26.130 ,0,1,0.,12.0,0.,12.0,0.,12.0,0.,12.0